Change the Weather History Date:

Monday, January 3, 2005

  Actual Average Record
Temperature  
Mean Temperature 50 °F -  
Max Temperature 55 °F 34 °F 60 °F (2004)
Min Temperature 46 °F 21 °F 1 °F (2014)
Degree Days  
Heating Degree Days 14    
Moisture  
Dew Point 48 °F    
Average Humidity 91    
Maximum Humidity 100    
Minimum Humidity 77    
Precipitation  
Precipitation 0.00 in - - ()
Sea Level Pressure  
Sea Level Pressure 30.38 in    
Wind  
Wind Speed 14 mph (WSW)    
Max Wind Speed 25 mph    
Max Gust Speed 34 mph    
Visibility 5 miles    
Events      
Averages and records for this station are not official NWS values.
T = Trace of Precipitation, MM = Missing Value Source: NWS Daily Summary

Daily Weather History Graph

Daily Weather History Graph

Search for Another Location

Airport or City:

Trip Planner

Search our weather history database for the weather conditions in past years. The results will help you decide how hot, cold, wet, or windy it might be!

Date:

Astronomy

Jan. 03, 2005 Rise Set
Actual Time 7:35 AM EST 5:12 PM EST
Civil Twilight 7:06 AM EST 5:41 PM EST
Nautical Twilight 6:33 AM EST 6:14 PM EST
Astronomical Twilight 6:01 AM EST 6:46 PM EST
Moon No Moon Rise 12:02 PM EST (1/3)
Length of Visible Light 10h 35m
Length of Day
9h 37m
Waning Gibbous, 50% of the Moon is Illuminated
Jan 3
Waning Gibbous
Jan 3
Last Quarter
Jan 10
New
Jan 17
First Quarter
Jan 25
Full

Hourly Weather History & Observations

Time (EST) Temp. Windchill Dew Point Humidity Pressure Visibility Wind Dir Wind Speed Gust Speed Precip Events Conditions
12:00 AM 46.4 °F 40.4 °F 46.4 °F 100% 30.46 in 0.2 mi WSW 13.8 mph - N/A   Overcast
12:20 AM 48.2 °F - 46.4 °F 93% 30.46 in 0.2 mi WSW 16.1 mph 21.9 mph N/A   Overcast
1:00 AM 48.2 °F - 46.4 °F 93% 30.45 in 0.2 mi West 13.8 mph 20.7 mph N/A   Overcast
1:20 AM 48.2 °F - 46.4 °F 93% 30.45 in 0.2 mi West 15.0 mph - N/A   Overcast
2:00 AM 48.2 °F - 48.2 °F 100% 30.44 in 0.2 mi West 16.1 mph 21.9 mph N/A   Overcast
2:20 AM 48.2 °F - 48.2 °F 100% 30.44 in 0.2 mi West 15.0 mph - N/A   Overcast
2:40 AM 48.2 °F - 48.2 °F 100% 30.43 in 0.2 mi West 16.1 mph - N/A   Overcast
3:00 AM 48.2 °F - 48.2 °F 100% 30.44 in 0.2 mi West 16.1 mph 20.7 mph N/A   Overcast
3:20 AM 48.2 °F - 48.2 °F 100% 30.43 in 0.2 mi West 15.0 mph - N/A   Overcast
4:00 AM 48.2 °F - 48.2 °F 100% 30.43 in 0.2 mi WSW 15.0 mph - N/A   Overcast
4:20 AM 48.2 °F - 48.2 °F 100% 30.42 in 0.2 mi West 15.0 mph 19.6 mph N/A   Overcast
5:00 AM 48.2 °F - 48.2 °F 100% 30.43 in 0.2 mi West 15.0 mph - N/A   Overcast
5:20 AM 48.2 °F - 48.2 °F 100% 30.43 in 0.2 mi West 13.8 mph - N/A   Overcast
5:40 AM 48.2 °F - 48.2 °F 100% 30.43 in 0.2 mi West 11.5 mph - N/A   Overcast
6:00 AM 48.2 °F - 48.2 °F 100% 30.42 in 0.2 mi WSW 15.0 mph - N/A   Overcast
6:20 AM 48.2 °F - 48.2 °F 100% 30.42 in 1.2 mi West 13.8 mph - N/A   Overcast
6:40 AM 48.2 °F - 48.2 °F 100% 30.43 in 1.8 mi West 12.7 mph - N/A   Overcast
7:20 AM 50.0 °F - 48.2 °F 94% 30.43 in 2.0 mi West 11.5 mph - N/A   Overcast
7:40 AM 50.0 °F - 48.2 °F 94% 30.43 in 2.5 mi West 12.7 mph - N/A   Overcast
8:00 AM 50.0 °F - 48.2 °F 94% 30.43 in 3.0 mi West 12.7 mph - N/A   Overcast
8:20 AM 50.0 °F - 48.2 °F 94% 30.43 in 3.0 mi West 11.5 mph - N/A   Overcast
9:00 AM 50.0 °F - 48.2 °F 94% 30.44 in 5.0 mi WSW 13.8 mph - N/A   Overcast
9:20 AM 50.0 °F - 48.2 °F 94% 30.44 in 5.0 mi West 12.7 mph - N/A   Overcast
10:00 AM 50.0 °F - 48.2 °F 94% 30.45 in 2.5 mi West 12.7 mph - N/A   Overcast
10:20 AM 50.0 °F - 48.2 °F 94% 30.45 in 3.0 mi WSW 16.1 mph - N/A   Overcast
10:40 AM 50.0 °F - 48.2 °F 94% 30.45 in 4.0 mi West 15.0 mph 19.6 mph N/A   Overcast
11:00 AM 50.0 °F - 48.2 °F 94% 30.44 in 0.2 mi West 15.0 mph - N/A   Overcast
11:20 AM 51.8 °F - 50.0 °F 94% 30.44 in 0.2 mi WSW 15.0 mph - N/A   Overcast
11:40 AM 51.8 °F - 50.0 °F 94% 30.42 in 0.2 mi West 17.3 mph - N/A   Overcast
12:00 PM 51.8 °F - 50.0 °F 94% 30.41 in 0.2 mi West 15.0 mph - N/A   Overcast
12:20 PM 51.8 °F - 50.0 °F 94% 30.39 in 0.2 mi West 15.0 mph - N/A   Overcast
1:00 PM 51.8 °F - 50.0 °F 94% 30.37 in 0.2 mi West 11.5 mph - N/A   Overcast
1:21 PM 51.8 °F - 51.8 °F 100% 30.35 in 1.8 mi West 11.5 mph - N/A   Overcast
1:40 PM 51.8 °F - 51.8 °F 100% 30.35 in 10.0 mi West 12.7 mph 18.4 mph N/A   Overcast
2:00 PM 53.6 °F - 51.8 °F 94% 30.33 in 10.0 mi West 11.5 mph - N/A   Mostly Cloudy
2:20 PM 55.4 °F - 51.8 °F 88% 30.33 in 10.0 mi West 12.7 mph - N/A   Mostly Cloudy
3:00 PM 55.4 °F - 51.8 °F 88% 30.32 in 10.0 mi West 13.8 mph 18.4 mph N/A   Clear
3:20 PM 55.4 °F - 50.0 °F 82% 30.33 in 10.0 mi West 9.2 mph - N/A   Clear
4:00 PM 53.6 °F - 50.0 °F 88% 30.33 in 10.0 mi West 6.9 mph - N/A   Mostly Cloudy
4:20 PM 53.6 °F - 50.0 °F 88% 30.33 in 10.0 mi SW 6.9 mph - N/A   Overcast
4:40 PM 53.6 °F - 50.0 °F 88% 30.33 in 10.0 mi SSW 4.6 mph - N/A   Overcast
5:00 PM 53.6 °F - 50.0 °F 88% 30.32 in 10.0 mi SSW 4.6 mph - N/A   Overcast
5:20 PM 53.6 °F - 48.2 °F 82% 30.32 in 10.0 mi SW 8.1 mph - N/A   Overcast
5:40 PM 53.6 °F - 48.2 °F 82% 30.32 in 10.0 mi SW 5.8 mph - N/A   Mostly Cloudy
6:00 PM 55.4 °F - 48.2 °F 77% 30.32 in 10.0 mi SW 8.1 mph - N/A   Mostly Cloudy
6:20 PM 53.6 °F - 48.2 °F 82% 30.32 in 10.0 mi WSW 10.4 mph 16.1 mph N/A   Scattered Clouds
7:00 PM 53.6 °F - 48.2 °F 82% 30.31 in 10.0 mi WSW 16.1 mph 21.9 mph N/A   Overcast
7:20 PM 53.6 °F - 48.2 °F 82% 30.31 in 10.0 mi WSW 18.4 mph 24.2 mph N/A   Overcast
7:40 PM 53.6 °F - 48.2 °F 82% 30.31 in 10.0 mi WSW 17.3 mph 24.2 mph N/A   Overcast
8:00 PM 53.6 °F - 46.4 °F 77% 30.31 in 10.0 mi West 24.2 mph 28.8 mph N/A   Overcast
8:20 PM 53.6 °F - 46.4 °F 77% 30.30 in 10.0 mi West 19.6 mph 28.8 mph N/A   Mostly Cloudy
9:00 PM 53.6 °F - 46.4 °F 77% 30.30 in 10.0 mi West 25.3 mph 32.2 mph N/A   Overcast
9:20 PM 51.8 °F - 46.4 °F 82% 30.29 in 10.0 mi West 20.7 mph 34.5 mph N/A   Overcast
10:00 PM 51.8 °F - 46.4 °F 82% 30.28 in 10.0 mi West 16.1 mph 27.6 mph N/A   Mostly Cloudy
10:20 PM 51.8 °F - 46.4 °F 82% 30.28 in 10.0 mi West 16.1 mph 21.9 mph N/A   Mostly Cloudy
10:40 PM 51.8 °F - 46.4 °F 82% 30.27 in 10.0 mi WSW 20.7 mph 24.2 mph N/A   Mostly Cloudy
11:00 PM 51.8 °F - 46.4 °F 82% 30.27 in 10.0 mi West 16.1 mph 21.9 mph N/A   Mostly Cloudy
11:20 PM 51.8 °F - 46.4 °F 82% 30.26 in 10.0 mi West 18.4 mph 27.6 mph N/A   Scattered Clouds